Tracking 21473 objects as of 20-Sep-2020
HD Live streaming from Space Station
objects crossing your sky now

NOAA 5

Track NOAA 5 now!
10-day predictions
NOAA 5 is classified as:


NORAD ID: 9057
Int'l Code: 1976-077A
Perigee: 1,515.8 km
Apogee: 1,530.7 km
Inclination: 102.0 °
Period: 116.3 minutes
Semi major axis: 7894 km
RCS: 1.7201 m2 (large)
Launch date: July 29, 1976
Source: United States (US)
Launch site: AIR FORCE WESTERN TEST RANGE (AFWTR)
aabbcc
Your satellite tracking list
Your tracking list is empty




NASA's NSSDC Master Catalog

Two Line Element Set (TLE):
1  9057U 76077A   20264.53118766 -.00000035  00000-0  70097-4 0  9995
2  9057 101.9972 230.8254 0009451 233.3461 234.9129 12.37754080995401
Source of the keplerian elements: AFSPC